Weather History for Adana, Turkey

Change the Weather History Date:

Friday, November 23, 2012

  Actual Average Record
Temperature  
Mean Temperature 64 °F -  
Max Temperature 68 °F 62 °F 82 °F (1998)
Min Temperature 59 °F 43 °F 30 °F (2001)
Degree Days  
Heating Degree Days 2    
Growing Degree Days 14 (Base 50)    
Moisture  
Dew Point 48 °F    
Average Humidity 58    
Maximum Humidity 72    
Minimum Humidity 46    
Precipitation  
Precipitation 0.00 in 0.16 in - ()
Sea Level Pressure  
Sea Level Pressure 29.96 in    
Wind  
Wind Speed 6 mph ()    
Max Wind Speed 15 mph    
Max Gust Speed -    
Visibility 3.1 miles    
Events      
Averages and records for this station are not official NWS values.
T = Trace of Precipitation, MM = Missing Value Source: Averaged Metar Reports

Daily Weather History Graph

Daily Weather History Graph

Search for Another Location

Airport:

Trip Planner

Search our weather history database for the weather conditions in past years. The results will help you decide how hot, cold, wet, or windy it might be!

Date:

Astronomy

Nov. 23, 2012 Rise Set
Actual Time 6:25 AM EET 4:24 PM EET
Civil Twilight 5:57 AM EET 4:52 PM EET
Nautical Twilight 5:25 AM EET 5:24 PM EET
Astronomical Twilight 4:54 AM EET 5:55 PM EET
Moon 1:23 PM EET (11/23) 1:30 AM EET (11/23)
Length of Visible Light 10h 55m
Length of Day
9h 58m
Waxing Gibbous, 77% of the Moon is Illuminated
Nov 23
Waxing Gibbous
Nov 28
Full
Dec 6
Last Quarter
Dec 13
New
Dec 20
First Quarter

Hourly Weather History & Observations

Time (EET) Temp. Dew Point Humidity Pressure Visibility Wind Dir Wind Speed Gust Speed Precip Events Conditions
12:20 AM 60.8 °F 51.8 °F 72% 29.95 in 3.1 mi NNW 5.8 mph - N/A   Mostly Cloudy
12:50 AM 60.8 °F 50.0 °F 68% 29.92 in 3.1 mi NNW 6.9 mph - N/A   Haze
1:20 AM 60.8 °F 51.8 °F 72% 29.92 in 3.1 mi North 6.9 mph - N/A   Mostly Cloudy
1:50 AM 60.8 °F 51.8 °F 72% 29.92 in 3.1 mi North 6.9 mph - N/A   Haze
2:20 AM 60.8 °F 50.0 °F 68% 29.92 in 3.1 mi North 6.9 mph - N/A   Haze
2:50 AM 60.8 °F 50.0 °F 68% 29.92 in 3.1 mi North 6.9 mph - N/A   Haze
3:20 AM 59.0 °F 50.0 °F 72% 29.92 in 3.1 mi North 6.9 mph - N/A   Mostly Cloudy
3:50 AM 60.8 °F 50.0 °F 68% 29.92 in 3.1 mi North 6.9 mph - N/A   Haze
4:20 AM 59.0 °F 50.0 °F 72% 29.92 in 3.1 mi North 5.8 mph - N/A   Haze
4:50 AM 60.8 °F 50.0 °F 68% 29.92 in 3.1 mi NNW 5.8 mph - N/A   Haze
5:20 AM 59.0 °F 48.2 °F 67% 29.92 in 3.1 mi NW 5.8 mph - N/A   Haze
5:50 AM 59.0 °F 48.2 °F 67% 29.92 in 3.1 mi NW 4.6 mph - N/A   Haze
6:20 AM 60.8 °F 48.2 °F 63% 29.92 in 3.1 mi North 6.9 mph - N/A   Haze
6:50 AM 59.0 °F 48.2 °F 67% 29.95 in 3.1 mi NW 3.5 mph - N/A   Haze
7:20 AM 60.8 °F 48.2 °F 63% 29.95 in 3.1 mi NNW 5.8 mph - N/A   Haze
7:50 AM 62.6 °F 48.2 °F 59% 29.95 in 3.1 mi NNW 6.9 mph - N/A   Haze
8:20 AM 62.6 °F 48.2 °F 59% 29.95 in 3.1 mi North 3.5 mph - N/A   Haze
8:50 AM 64.4 °F 48.2 °F 56% 29.95 in 3.1 mi North 6.9 mph - N/A   Haze
9:20 AM 64.4 °F 48.2 °F 56% 29.98 in 3.1 mi North 6.9 mph - N/A   Haze
9:50 AM 66.2 °F 46.4 °F 49% 29.95 in 3.1 mi North 9.2 mph - N/A   Haze
10:20 AM 68.0 °F 48.2 °F 49% 29.98 in 3.1 mi NNE 10.4 mph - N/A   Haze
10:50 AM 68.0 °F 48.2 °F 49% 29.95 in 3.1 mi NE 15.0 mph - N/A   Haze
11:20 AM 68.0 °F 50.0 °F 52% 29.95 in 3.1 mi NE 11.5 mph - N/A   Haze
11:50 AM 68.0 °F 48.2 °F 49% 29.95 in 3.1 mi ENE 11.5 mph - N/A   Haze
12:20 PM 66.2 °F 51.8 °F 60% 29.95 in 3.1 mi NE 8.1 mph - N/A   Haze
12:50 PM 66.2 °F 50.0 °F 56% 29.95 in 3.1 mi NE 6.9 mph - N/A   Haze
1:20 PM 68.0 °F 50.0 °F 52% 29.95 in 3.1 mi North 5.8 mph - N/A   Haze
1:50 PM 68.0 °F 50.0 °F 52% 29.95 in 3.1 mi North 5.8 mph - N/A   Haze
2:20 PM 68.0 °F 50.0 °F 52% 29.95 in 3.1 mi NNE 6.9 mph - N/A   Haze
2:50 PM 68.0 °F 48.2 °F 49% 29.95 in 3.1 mi NNE 9.2 mph - N/A   Haze
3:20 PM 68.0 °F 46.4 °F 46% 29.95 in 3.1 mi North 9.2 mph - N/A   Haze
3:50 PM 66.2 °F 46.4 °F 49% 29.95 in 3.1 mi North 8.1 mph - N/A   Haze
4:20 PM 66.2 °F 46.4 °F 49% 29.95 in 3.1 mi North 6.9 mph - N/A   Haze
4:50 PM 64.4 °F 50.0 °F 59% 29.98 in 3.1 mi NNW 4.6 mph - N/A   Haze
5:20 PM 64.4 °F 48.2 °F 56% 29.98 in 3.1 mi NW 5.8 mph - N/A   Haze
5:50 PM 64.4 °F 48.2 °F 56% 29.98 in 3.1 mi NNW 6.9 mph - N/A   Haze
6:20 PM 64.4 °F 48.2 °F 56% 29.98 in 3.1 mi North 3.5 mph - N/A   Haze
6:50 PM 62.6 °F 50.0 °F 63% 29.98 in 3.1 mi NNE 5.8 mph - N/A   Haze
7:20 PM 64.4 °F 46.4 °F 52% 29.98 in 3.1 mi North 8.1 mph - N/A   Haze
7:50 PM 64.4 °F 46.4 °F 52% 29.98 in 3.1 mi North 5.8 mph - N/A   Haze
8:20 PM 64.4 °F 46.4 °F 52% 29.98 in 3.1 mi North 8.1 mph - N/A   Haze
8:50 PM 62.6 °F 46.4 °F 55% 29.98 in 3.1 mi NNW 4.6 mph - N/A   Haze
9:20 PM 62.6 °F 46.4 °F 55% 30.01 in 3.1 mi NNW 5.8 mph - N/A   Haze
9:50 PM 62.6 °F 46.4 °F 55% 30.01 in 3.1 mi North 5.8 mph - N/A   Haze
10:20 PM 62.6 °F 46.4 °F 55% 30.01 in 3.1 mi North 4.6 mph - N/A   Haze
10:50 PM 62.6 °F 44.6 °F 52% 30.01 in 3.1 mi North 3.5 mph - N/A   Haze
11:20 PM 60.8 °F 46.4 °F 59% 30.01 in 3.1 mi NNE 4.6 mph - N/A   Haze
11:50 PM 60.8 °F 46.4 °F 59% 30.01 in 3.1 mi NNE 3.5 mph - N/A   Haze